Location: ??????
(55.2000°N, 38.3000°E)
Time: 07:51:42
(UTC+00:00)

USA 238 DEB - Pass Details

Date: 15 November 2025
Orbit: 886 x 1325 km, 63.4° (Epoch: 24 November)

Event Time Altitude Azimuth Distance (km) Brightness Sun altitude
Exits shadow 02:03:29 34° 319° (NW) 1,688 4.4 -24.8°
Maximum altitude 02:05:40 44° 1° (N) 1,499 4.4 -24.4°
Drops below altitude 10° 02:12:44 10° 72° (ENE) 3,128 7.1 -23.4°
Sets 02:15:48 0° 79° (ENE) 4,155 8.2 -23.0°
